TimeCST,TemperatureF,Dew PointF,Humidity,Sea Level PressureIn,VisibilityMPH,Wind Direction,Wind SpeedMPH,Gust SpeedMPH,PrecipitationIn,Events,Conditions,WindDirDegrees,DateUTC
12:15 AM,46.4,44.6,93,30.35,0.8,NE,16.1,-,0.01,,Overcast,40,2013-01-10 06:15:00
12:55 AM,46.4,44.6,93,30.31,1.8,NNE,18.4,-,0.14,,Overcast,30,2013-01-10 06:55:00
1:15 AM,46.4,42.8,87,30.31,1.5,NNE,19.6,-,0.03,,Overcast,30,2013-01-10 07:15:00
1:35 AM,46.4,42.8,87,30.31,2.5,NE,17.3,-,0.05,,Overcast,40,2013-01-10 07:35:00
1:55 AM,46.4,42.8,87,30.31,2.5,NE,16.1,24.2,0.07,,Overcast,40,2013-01-10 07:55:00
2:35 AM,46.4,44.6,93,30.28,1.8,NE,17.3,21.9,0.05,,Overcast,50,2013-01-10 08:35:00
2:55 AM,46.4,44.6,93,30.25,7.0,NE,20.7,-,0.05,,Overcast,50,2013-01-10 08:55:00
3:15 AM,46.4,44.6,93,30.22,5.0,ENE,17.3,29.9,N/A,,Overcast,70,2013-01-10 09:15:00
3:35 AM,46.4,44.6,93,30.23,5.0,North,12.7,-,0.02,,Overcast,350,2013-01-10 09:35:00
4:55 AM,46.4,44.6,93,30.22,2.0,NE,10.4,-,N/A,,Overcast,40,2013-01-10 10:55:00
5:15 AM,46.4,44.6,93,30.21,2.5,NNE,9.2,-,N/A,,Overcast,30,2013-01-10 11:15:00
5:35 AM,46.4,44.6,93,30.18,2.5,NE,11.5,-,N/A,,Overcast,40,2013-01-10 11:35:00
5:55 AM,46.4,44.6,93,30.20,2.5,NNE,9.2,-,N/A,,Overcast,30,2013-01-10 11:55:00
6:35 AM,46.4,46.4,100,30.18,1.5,NE,12.7,-,N/A,,Overcast,40,2013-01-10 12:35:00
6:55 AM,46.4,46.4,100,30.17,2.0,NE,12.7,-,N/A,,Overcast,40,2013-01-10 12:55:00
7:15 AM,46.4,46.4,100,30.18,2.5,NE,12.7,-,N/A,,Overcast,50,2013-01-10 13:15:00
7:55 AM,48.2,46.4,93,30.19,2.0,NNE,9.2,-,N/A,,Overcast,30,2013-01-10 13:55:00
8:35 AM,48.2,46.4,93,30.19,1.0,NNE,10.4,-,N/A,,Overcast,20,2013-01-10 14:35:00
9:15 AM,48.2,48.2,100,30.17,1.0,NNE,9.2,-,N/A,,Overcast,30,2013-01-10 15:15:00
9:35 AM,48.2,48.2,100,30.17,0.8,NE,9.2,-,N/A,,Overcast,40,2013-01-10 15:35:00
9:55 AM,48.2,46.4,93,30.16,0.8,NE,9.2,-,N/A,,Overcast,40,2013-01-10 15:55:00
10:15 AM,50.0,50.0,100,30.15,0.8,NE,10.4,-,N/A,,Overcast,50,2013-01-10 16:15:00
10:35 AM,50.0,50.0,100,30.13,1.0,NE,9.2,-,N/A,,Overcast,50,2013-01-10 16:35:00
10:55 AM,51.8,51.8,100,30.12,1.5,ENE,10.4,-,N/A,,Overcast,60,2013-01-10 16:55:00
11:15 AM,51.8,50.0,94,30.10,1.8,ENE,11.5,-,N/A,,Overcast,60,2013-01-10 17:15:00
11:35 AM,53.6,53.6,100,30.09,2.0,East,12.7,-,N/A,,Overcast,90,2013-01-10 17:35:00
12:15 PM,55.4,55.4,100,30.05,3.0,East,11.5,-,N/A,,Overcast,90,2013-01-10 18:15:00
12:35 PM,55.4,55.4,100,30.01,2.5,East,13.8,-,N/A,,Overcast,90,2013-01-10 18:35:00
12:55 PM,57.2,57.2,100,29.90,2.5,ENE,28.8,-,N/A,,Overcast,70,2013-01-10 18:55:00
1:15 PM,57.2,57.2,100,29.97,8.0,ESE,8.1,-,N/A,,Overcast,120,2013-01-10 19:15:00
1:55 PM,60.8,60.8,100,29.96,10.0,SE,13.8,-,N/A,,Overcast,130,2013-01-10 19:55:00
2:15 PM,60.8,60.8,100,29.95,10.0,SE,9.2,-,N/A,,Overcast,130,2013-01-10 20:15:00
2:35 PM,62.6,60.8,94,29.95,10.0,SE,16.1,19.6,N/A,,Overcast,140,2013-01-10 20:35:00
2:55 PM,62.6,62.6,100,29.94,10.0,SSE,15.0,-,N/A,,Overcast,150,2013-01-10 20:55:00
3:35 PM,64.4,60.8,88,29.92,10.0,SSE,18.4,24.2,N/A,,Overcast,150,2013-01-10 21:35:00
3:55 PM,64.4,60.8,88,29.91,10.0,SSE,19.6,-,N/A,,Mostly Cloudy,150,2013-01-10 21:55:00
4:15 PM,64.4,60.8,88,29.90,10.0,SSE,15.0,-,N/A,,Partly Cloudy,160,2013-01-10 22:15:00
4:35 PM,62.6,60.8,94,29.90,10.0,SSE,12.7,-,N/A,,Mostly Cloudy,160,2013-01-10 22:35:00
4:55 PM,64.4,60.8,88,29.90,10.0,South,13.8,-,N/A,,Overcast,170,2013-01-10 22:55:00
5:15 PM,62.6,60.8,94,29.90,10.0,South,10.4,-,N/A,,Overcast,170,2013-01-10 23:15:00
5:35 PM,62.6,60.8,94,29.90,10.0,SSE,10.4,-,N/A,,Overcast,160,2013-01-10 23:35:00
5:55 PM,62.6,60.8,94,29.89,10.0,SSE,8.1,-,N/A,,Overcast,150,2013-01-10 23:55:00
6:15 PM,60.8,60.8,100,29.89,10.0,SSE,8.1,-,N/A,,Overcast,160,2013-01-11 00:15:00
6:55 PM,60.8,60.8,100,29.89,5.0,South,8.1,-,0.01,,Overcast,170,2013-01-11 00:55:00
7:15 PM,60.8,60.8,100,29.89,4.0,South,10.4,-,0.04,,Overcast,180,2013-01-11 01:15:00
8:15 PM,62.6,60.8,94,29.89,3.0,South,18.4,23.0,N/A,,Overcast,180,2013-01-11 02:15:00
8:55 PM,60.8,59.0,94,29.91,10.0,SSW,23.0,-,N/A,,Overcast,210,2013-01-11 02:55:00
9:15 PM,60.8,59.0,94,29.92,10.0,SSW,21.9,-,N/A,,Mostly Cloudy,200,2013-01-11 03:15:00
9:35 PM,60.8,59.0,94,29.92,10.0,SSW,17.3,-,N/A,,Partly Cloudy,210,2013-01-11 03:35:00
10:15 PM,59.0,57.2,94,29.91,10.0,SSW,15.0,-,N/A,,Partly Cloudy,210,2013-01-11 04:15:00
10:35 PM,59.0,57.2,94,29.90,10.0,SSW,13.8,-,N/A,,Partly Cloudy,200,2013-01-11 04:35:00
10:55 PM,59.0,57.2,94,29.89,10.0,South,11.5,-,N/A,,Mostly Cloudy,190,2013-01-11 04:55:00
11:15 PM,57.2,57.2,100,29.90,10.0,SSW,13.8,-,N/A,,Scattered Clouds,200,2013-01-11 05:15:00
11:55 PM,57.2,57.2,100,29.89,10.0,SSW,17.3,-,N/A,,Partly Cloudy,200,2013-01-11 05:55:00